User: anonymous
Location: Potawatomi Wildlife Park
(41.2308°N, 86.1050°W)
Time: 06:20:36
(UTC-04:00)
Language:

SL-16 R/B - Orbit

View from above orbital plane
View from above orbital plane
View from above satellite
View from above satellite

Ground track
Ground track

The orbit data is extracted from the following two-line orbital elements,

1 27006U 01056F   14208.13862786 -.00000080  00000-0 -42723-4 0  1896
2 27006 099.1702 014.2174 0014867 184.2780 305.8972 13.70914811631795
Epoch (UTC): 27 July 2014 03:19:37
Eccentricity: 0.0014867
inclination: 99.1702°
perigee height: 985 km
apogee height: 1007 km
right ascension of ascending node: 14.2174°
argument of perigee: 184.2780°
revolutions per day: 13.70914811
mean anomaly at epoch: 305.8972°
orbit number at epoch: 63179

The dashed part of the orbit path shows where the satellite is in the earth's shadow,  

DLR